Year,Month,Day,Hour,Minute,Value (Times are PST for temperature in C)
2006,11,26,00,00,1.00
2006,11,26,00,01,1.00
2006,11,26,00,02,1.00
2006,11,26,00,03,1.00
2006,11,26,00,04,1.00
2006,11,26,00,05,1.00
2006,11,26,00,06,1.00
2006,11,26,00,07,1.00
2006,11,26,00,08,1.00
2006,11,26,00,09,1.00
2006,11,26,00,10,1.00
2006,11,26,00,11,1.00
2006,11,26,00,12,1.00
2006,11,26,00,13,1.00
2006,11,26,00,14,1.00
2006,11,26,00,15,1.00
2006,11,26,00,16,1.00
2006,11,26,00,17,1.00
2006,11,26,00,18,1.00
2006,11,26,00,19,1.10
2006,11,26,00,20,1.10
2006,11,26,00,21,1.10
2006,11,26,00,22,1.10
2006,11,26,00,23,1.10
2006,11,26,00,24,1.10
2006,11,26,00,25,1.10
2006,11,26,00,26,1.10
2006,11,26,00,27,1.10
2006,11,26,00,28,1.10
2006,11,26,00,29,1.20
2006,11,26,00,30,1.20
2006,11,26,00,31,1.20
2006,11,26,00,32,1.20
2006,11,26,00,33,1.20
2006,11,26,00,34,1.20
2006,11,26,00,35,1.20
2006,11,26,00,36,1.20
2006,11,26,00,37,1.20
2006,11,26,00,38,1.20
2006,11,26,00,39,1.30
2006,11,26,00,40,1.30
2006,11,26,00,41,1.30
2006,11,26,00,42,1.30
2006,11,26,00,43,1.30
2006,11,26,00,44,1.30
2006,11,26,00,45,1.30
2006,11,26,00,46,1.30
2006,11,26,00,47,1.30
2006,11,26,00,48,1.30
2006,11,26,00,49,1.30
2006,11,26,00,50,1.30
2006,11,26,00,51,1.30
2006,11,26,00,52,1.30
2006,11,26,00,53,1.30
2006,11,26,00,54,1.30
2006,11,26,00,55,1.30
2006,11,26,00,56,1.30
2006,11,26,00,57,1.30
2006,11,26,00,58,1.30
2006,11,26,00,59,1.30
2006,11,26,01,00,1.30
2006,11,26,01,01,1.30
2006,11,26,01,02,1.30
2006,11,26,01,03,1.30
2006,11,26,01,04,1.30
2006,11,26,01,05,1.30
2006,11,26,01,06,1.30
2006,11,26,01,07,1.30
2006,11,26,01,08,1.30
2006,11,26,01,09,1.30
2006,11,26,01,10,1.30
2006,11,26,01,11,1.30
2006,11,26,01,12,1.30
2006,11,26,01,13,1.30
2006,11,26,01,14,1.30
2006,11,26,01,15,1.30
2006,11,26,01,16,1.30
2006,11,26,01,17,1.30
2006,11,26,01,18,1.30
2006,11,26,01,19,1.30
2006,11,26,01,20,1.30
2006,11,26,01,21,1.30
2006,11,26,01,22,1.30
2006,11,26,01,23,1.30
2006,11,26,01,24,1.30
2006,11,26,01,25,1.30
2006,11,26,01,26,1.30
2006,11,26,01,27,1.30
2006,11,26,01,28,1.30
2006,11,26,01,29,1.30
2006,11,26,01,30,1.40
2006,11,26,01,31,1.40
2006,11,26,01,32,1.40
2006,11,26,01,33,1.40
2006,11,26,01,34,1.40
2006,11,26,01,35,1.40
2006,11,26,01,36,1.40
2006,11,26,01,37,1.50
2006,11,26,01,38,1.50
2006,11,26,01,39,1.50
2006,11,26,01,40,1.50
2006,11,26,01,41,1.50
2006,11,26,01,42,1.50
2006,11,26,01,43,1.50
2006,11,26,01,44,1.50
2006,11,26,01,45,1.50
2006,11,26,01,46,1.50
2006,11,26,01,47,1.50
2006,11,26,01,48,1.60
2006,11,26,01,49,1.60
2006,11,26,01,50,1.60
2006,11,26,01,51,1.60
2006,11,26,01,52,1.60
2006,11,26,01,53,1.60
2006,11,26,01,54,1.60
2006,11,26,01,55,1.70
2006,11,26,01,56,1.70
2006,11,26,01,57,1.70
2006,11,26,01,58,1.70
2006,11,26,01,59,1.70
2006,11,26,02,00,1.70
2006,11,26,02,01,1.70
2006,11,26,02,02,1.70
2006,11,26,02,03,1.70
2006,11,26,02,04,1.70
2006,11,26,02,05,1.70
2006,11,26,02,06,1.70
2006,11,26,02,07,1.70
2006,11,26,02,08,1.70
2006,11,26,02,09,1.70
2006,11,26,02,10,1.70
2006,11,26,02,11,1.70
2006,11,26,02,12,1.70
2006,11,26,02,13,1.70
2006,11,26,02,14,1.80
2006,11,26,02,15,1.80
2006,11,26,02,16,1.80
2006,11,26,02,17,1.80
2006,11,26,02,18,1.80
2006,11,26,02,19,1.80
2006,11,26,02,20,1.80
2006,11,26,02,21,1.80
2006,11,26,02,22,1.80
2006,11,26,02,23,1.80
2006,11,26,02,24,1.80
2006,11,26,02,25,1.80
2006,11,26,02,26,1.80
2006,11,26,02,27,1.80
2006,11,26,02,28,1.80
2006,11,26,02,29,1.80
2006,11,26,02,30,1.80
2006,11,26,02,31,1.80
2006,11,26,02,32,1.80
2006,11,26,02,33,1.80
2006,11,26,02,34,1.80
2006,11,26,02,35,1.80
2006,11,26,02,36,1.80
2006,11,26,02,37,1.80
2006,11,26,02,38,1.80
2006,11,26,02,39,1.80
2006,11,26,02,40,1.80
2006,11,26,02,41,1.80
2006,11,26,02,42,1.80
2006,11,26,02,43,1.80
2006,11,26,02,44,1.80
2006,11,26,02,45,1.80
2006,11,26,02,46,1.80
2006,11,26,02,47,1.80
2006,11,26,02,48,1.80
2006,11,26,02,49,1.80
2006,11,26,02,50,1.80
2006,11,26,02,51,1.80
2006,11,26,02,52,1.80
2006,11,26,02,53,1.80
2006,11,26,02,54,1.80
2006,11,26,02,55,1.80
2006,11,26,02,56,1.80
2006,11,26,02,57,1.80
2006,11,26,02,58,1.80
2006,11,26,02,59,1.80
2006,11,26,03,00,1.80
2006,11,26,03,01,1.80
2006,11,26,03,02,1.80
2006,11,26,03,03,1.80
2006,11,26,03,04,1.80
2006,11,26,03,05,1.80
2006,11,26,03,06,1.80
2006,11,26,03,07,1.80
2006,11,26,03,08,1.80
2006,11,26,03,09,1.90
2006,11,26,03,10,1.90
2006,11,26,03,11,1.90
2006,11,26,03,12,1.90
2006,11,26,03,13,1.90
2006,11,26,03,14,1.90
2006,11,26,03,15,1.90
2006,11,26,03,16,1.90
2006,11,26,03,17,1.90
2006,11,26,03,18,1.90
2006,11,26,03,19,1.90
2006,11,26,03,20,1.90
2006,11,26,03,21,1.90
2006,11,26,03,22,1.90
2006,11,26,03,23,2.00
2006,11,26,03,24,2.00
2006,11,26,03,25,2.00
2006,11,26,03,26,2.00
2006,11,26,03,27,2.00
2006,11,26,03,28,2.00
2006,11,26,03,29,2.10
2006,11,26,03,30,2.20
2006,11,26,03,31,2.30
2006,11,26,03,32,2.40
2006,11,26,03,33,2.50
2006,11,26,03,34,2.60
2006,11,26,03,35,2.70
2006,11,26,03,36,2.80
2006,11,26,03,37,2.90
2006,11,26,03,38,3.10
2006,11,26,03,39,3.10
2006,11,26,03,40,3.20
2006,11,26,03,41,3.20
2006,11,26,03,42,3.30
2006,11,26,03,43,3.30
2006,11,26,03,44,3.50
2006,11,26,03,45,3.50
2006,11,26,03,46,3.60
2006,11,26,03,47,3.60
2006,11,26,03,48,3.60
2006,11,26,03,49,3.70
2006,11,26,03,50,3.80
2006,11,26,03,51,3.80
2006,11,26,03,52,3.90
2006,11,26,03,53,3.90
2006,11,26,03,54,4.00
2006,11,26,03,55,4.00
2006,11,26,03,56,4.00
2006,11,26,03,57,4.10
2006,11,26,03,58,4.10
2006,11,26,03,59,4.10
2006,11,26,04,00,4.10
2006,11,26,04,01,4.10
2006,11,26,04,02,4.10
2006,11,26,04,03,4.10
2006,11,26,04,04,4.10
2006,11,26,04,05,4.10
2006,11,26,04,06,4.10
2006,11,26,04,07,4.20
2006,11,26,04,08,4.20
2006,11,26,04,09,4.10
2006,11,26,04,10,4.10
2006,11,26,04,11,4.10
2006,11,26,04,12,4.20
2006,11,26,04,13,4.20
2006,11,26,04,14,4.20
2006,11,26,04,15,4.20
2006,11,26,04,16,4.20
2006,11,26,04,17,4.20
2006,11,26,04,18,4.20
2006,11,26,04,19,4.20
2006,11,26,04,20,4.20
2006,11,26,04,21,4.20
2006,11,26,04,22,4.20
2006,11,26,04,23,4.10
2006,11,26,04,24,4.10
2006,11,26,04,25,4.10
2006,11,26,04,26,4.10
2006,11,26,04,27,4.20
2006,11,26,04,28,4.20
2006,11,26,04,29,4.20
2006,11,26,04,30,4.20
2006,11,26,04,31,4.20
2006,11,26,04,32,4.20
2006,11,26,04,33,4.20
2006,11,26,04,34,4.20
2006,11,26,04,35,4.20
2006,11,26,04,36,4.20
2006,11,26,04,37,4.20
2006,11,26,04,38,4.20
2006,11,26,04,39,4.20
2006,11,26,04,40,4.20
2006,11,26,04,41,4.20
2006,11,26,04,42,4.20
2006,11,26,04,43,4.20
2006,11,26,04,44,4.20
2006,11,26,04,45,4.20
2006,11,26,04,46,4.20
2006,11,26,04,47,4.20
2006,11,26,04,48,4.20
2006,11,26,04,49,4.20
2006,11,26,04,50,4.20
2006,11,26,04,51,4.20
2006,11,26,04,52,4.30
2006,11,26,04,53,4.30
2006,11,26,04,54,4.30
2006,11,26,04,55,4.30
2006,11,26,04,56,4.30
2006,11,26,04,57,4.30
2006,11,26,04,58,4.30
2006,11,26,04,59,4.30
2006,11,26,05,00,4.30
2006,11,26,05,01,4.30
2006,11,26,05,02,4.30
2006,11,26,05,03,4.30
2006,11,26,05,04,4.30
2006,11,26,05,05,4.30
2006,11,26,05,06,4.30
2006,11,26,05,07,4.30
2006,11,26,05,08,4.30
2006,11,26,05,09,4.30
2006,11,26,05,10,4.30
2006,11,26,05,11,4.30
2006,11,26,05,12,4.30
2006,11,26,05,13,4.30
2006,11,26,05,14,4.20
2006,11,26,05,15,4.20
2006,11,26,05,16,4.20
2006,11,26,05,17,4.20
2006,11,26,05,18,4.20
2006,11,26,05,19,4.20
2006,11,26,05,20,4.20
2006,11,26,05,21,4.20
2006,11,26,05,22,4.20
2006,11,26,05,23,4.20
2006,11,26,05,24,4.20
2006,11,26,05,25,4.20
2006,11,26,05,26,4.20
2006,11,26,05,27,4.20
2006,11,26,05,28,4.20
2006,11,26,05,29,4.10
2006,11,26,05,30,4.10
2006,11,26,05,31,4.10
2006,11,26,05,32,4.10
2006,11,26,05,33,4.10
2006,11,26,05,34,4.10
2006,11,26,05,35,4.10
2006,11,26,05,36,4.10
2006,11,26,05,37,4.10
2006,11,26,05,38,4.10
2006,11,26,05,39,4.00
2006,11,26,05,40,4.00
2006,11,26,05,41,4.00
2006,11,26,05,42,4.00
2006,11,26,05,43,4.00
2006,11,26,05,44,4.00
2006,11,26,05,45,4.00
2006,11,26,05,46,4.00
2006,11,26,05,47,4.00
2006,11,26,05,48,3.90
2006,11,26,05,49,3.90
2006,11,26,05,50,3.90
2006,11,26,05,51,3.90
2006,11,26,05,52,3.90
2006,11,26,05,53,3.90
2006,11,26,05,54,3.90
2006,11,26,05,55,3.80
2006,11,26,05,56,3.80
2006,11,26,05,57,3.80
2006,11,26,05,58,3.80
2006,11,26,05,59,3.90
2006,11,26,06,00,3.90
2006,11,26,06,01,3.90
2006,11,26,06,02,3.90
2006,11,26,06,03,3.90
2006,11,26,06,04,3.90
2006,11,26,06,05,3.90
2006,11,26,06,06,3.90
2006,11,26,06,07,3.90
2006,11,26,06,08,3.90
2006,11,26,06,09,3.90
2006,11,26,06,10,3.90
2006,11,26,06,11,3.90
2006,11,26,06,12,3.90
2006,11,26,06,13,3.90
2006,11,26,06,14,4.00
2006,11,26,06,15,4.00
2006,11,26,06,16,4.00
2006,11,26,06,17,4.00
2006,11,26,06,18,4.00
2006,11,26,06,19,4.00
2006,11,26,06,20,4.00
2006,11,26,06,21,4.00
2006,11,26,06,22,4.00
2006,11,26,06,23,4.00
2006,11,26,06,24,4.00
2006,11,26,06,25,4.00
2006,11,26,06,26,4.10
2006,11,26,06,27,4.10
2006,11,26,06,28,4.10
2006,11,26,06,29,4.10
2006,11,26,06,30,4.10
2006,11,26,06,31,4.10
2006,11,26,06,32,4.10
2006,11,26,06,33,4.10
2006,11,26,06,34,4.10
2006,11,26,06,35,4.00
2006,11,26,06,36,4.00
2006,11,26,06,37,4.00
2006,11,26,06,38,4.00
2006,11,26,06,39,3.90
2006,11,26,06,40,3.90
2006,11,26,06,41,3.80
2006,11,26,06,42,3.80
2006,11,26,06,43,3.80
2006,11,26,06,44,3.80
2006,11,26,06,45,3.80
2006,11,26,06,46,3.80
2006,11,26,06,47,3.80
2006,11,26,06,48,3.70
2006,11,26,06,49,3.70
2006,11,26,06,50,3.70
2006,11,26,06,51,3.70
2006,11,26,06,52,3.70
2006,11,26,06,53,3.70
2006,11,26,06,54,3.70
2006,11,26,06,55,3.70
2006,11,26,06,56,3.70
2006,11,26,06,57,3.70
2006,11,26,06,58,3.70
2006,11,26,06,59,3.70
2006,11,26,07,00,3.70
2006,11,26,07,01,3.70
2006,11,26,07,02,3.70
2006,11,26,07,03,3.70
2006,11,26,07,04,3.60
2006,11,26,07,05,3.60
2006,11,26,07,06,3.60
2006,11,26,07,07,3.60
2006,11,26,07,08,3.60
2006,11,26,07,09,3.50
2006,11,26,07,10,3.50
2006,11,26,07,11,3.50
2006,11,26,07,12,3.50
2006,11,26,07,13,3.50
2006,11,26,07,14,3.50
2006,11,26,07,15,3.40
2006,11,26,07,16,3.40
2006,11,26,07,17,3.40
2006,11,26,07,18,3.40
2006,11,26,07,19,3.40
2006,11,26,07,20,3.40
2006,11,26,07,21,3.40
2006,11,26,07,22,3.40
2006,11,26,07,23,3.40
2006,11,26,07,24,3.40
2006,11,26,07,25,3.40
2006,11,26,07,26,3.40
2006,11,26,07,27,3.40
2006,11,26,07,28,3.40
2006,11,26,07,29,3.30
2006,11,26,07,30,3.30
2006,11,26,07,31,3.30
2006,11,26,07,32,3.30
2006,11,26,07,33,3.30
2006,11,26,07,34,3.30
2006,11,26,07,35,3.30
2006,11,26,07,36,3.30
2006,11,26,07,37,3.30
2006,11,26,07,38,3.30
2006,11,26,07,39,3.30
2006,11,26,07,40,3.30
2006,11,26,07,41,3.30
2006,11,26,07,42,3.30
2006,11,26,07,43,3.30
2006,11,26,07,44,3.30
2006,11,26,07,45,3.30
2006,11,26,07,46,3.30
2006,11,26,07,47,3.30
2006,11,26,07,48,3.30
2006,11,26,07,49,3.30
2006,11,26,07,50,3.30
2006,11,26,07,51,3.20
2006,11,26,07,52,3.20
2006,11,26,07,53,3.20
2006,11,26,07,54,3.20
2006,11,26,07,55,3.20
2006,11,26,07,56,3.20
2006,11,26,07,57,3.10
2006,11,26,07,58,3.10
2006,11,26,07,59,3.10
2006,11,26,08,00,3.10
2006,11,26,08,01,3.00
2006,11,26,08,02,2.90
2006,11,26,08,03,2.90
2006,11,26,08,04,2.90
2006,11,26,08,05,2.90
2006,11,26,08,06,2.80
2006,11,26,08,07,2.70
2006,11,26,08,08,2.70
2006,11,26,08,09,2.60
2006,11,26,08,10,2.50
2006,11,26,08,11,2.50
2006,11,26,08,12,2.40
2006,11,26,08,13,2.30
2006,11,26,08,14,2.20
2006,11,26,08,15,2.20
2006,11,26,08,16,2.10
2006,11,26,08,17,2.10
2006,11,26,08,18,2.00
2006,11,26,08,19,2.00
2006,11,26,08,20,1.90
2006,11,26,08,21,1.90
2006,11,26,08,22,1.80
2006,11,26,08,23,1.80
2006,11,26,08,24,1.80
2006,11,26,08,25,1.80
2006,11,26,08,26,1.80
2006,11,26,08,27,1.80
2006,11,26,08,28,1.70
2006,11,26,08,29,1.70
2006,11,26,08,30,1.70
2006,11,26,08,31,1.70
2006,11,26,08,32,1.60
2006,11,26,08,33,1.60
2006,11,26,08,34,1.50
2006,11,26,08,35,1.50
2006,11,26,08,36,1.40
2006,11,26,08,37,1.40
2006,11,26,08,38,1.30
2006,11,26,08,39,1.30
2006,11,26,08,40,1.30
2006,11,26,08,41,1.20
2006,11,26,08,42,1.20
2006,11,26,08,43,1.10
2006,11,26,08,44,1.10
2006,11,26,08,45,1.00
2006,11,26,08,46,1.00
2006,11,26,08,47,1.00
2006,11,26,08,48,0.90
2006,11,26,08,49,0.90
2006,11,26,08,50,0.80
2006,11,26,08,51,0.80
2006,11,26,08,52,0.80
2006,11,26,08,53,0.80
2006,11,26,08,54,0.80
2006,11,26,08,55,0.80
2006,11,26,08,56,0.80
2006,11,26,08,57,0.70
2006,11,26,08,58,0.70
2006,11,26,08,59,0.70
2006,11,26,09,00,0.70
2006,11,26,09,01,0.70
2006,11,26,09,02,0.70
2006,11,26,09,03,0.70
2006,11,26,09,04,0.60
2006,11,26,09,05,0.60
2006,11,26,09,06,0.60
2006,11,26,09,07,0.60
2006,11,26,09,08,0.50
2006,11,26,09,09,0.50
2006,11,26,09,10,0.50
2006,11,26,09,11,0.50
2006,11,26,09,12,0.50
2006,11,26,09,13,0.50
2006,11,26,09,14,0.50
2006,11,26,09,15,0.40
2006,11,26,09,16,0.40
2006,11,26,09,17,0.40
2006,11,26,09,18,0.40
2006,11,26,09,19,0.40
2006,11,26,09,20,0.40
2006,11,26,09,21,0.40
2006,11,26,09,22,0.40
2006,11,26,09,23,0.40
2006,11,26,09,24,0.40
2006,11,26,09,25,0.40
2006,11,26,09,26,0.40
2006,11,26,09,27,0.40
2006,11,26,09,28,0.40
2006,11,26,09,29,0.40
2006,11,26,09,30,0.40
2006,11,26,09,31,0.40
2006,11,26,09,32,0.40
2006,11,26,09,33,0.40
2006,11,26,09,34,0.40
2006,11,26,09,35,0.40
2006,11,26,09,36,0.40
2006,11,26,09,37,0.40
2006,11,26,09,38,0.40
2006,11,26,09,39,0.40
2006,11,26,09,40,0.40
2006,11,26,09,41,0.40
2006,11,26,09,42,0.40
2006,11,26,09,43,0.40
2006,11,26,09,44,0.40
2006,11,26,09,45,0.40
2006,11,26,09,46,0.40
2006,11,26,09,47,0.40
2006,11,26,09,48,0.40
2006,11,26,09,49,0.40
2006,11,26,09,50,0.40
2006,11,26,09,51,0.40
2006,11,26,09,52,0.40
2006,11,26,09,53,0.40
2006,11,26,09,54,0.40
2006,11,26,09,55,0.40
2006,11,26,09,56,0.40
2006,11,26,09,57,0.40
2006,11,26,09,58,0.40
2006,11,26,09,59,0.40
2006,11,26,10,00,0.40
2006,11,26,10,01,0.40
2006,11,26,10,02,0.40
2006,11,26,10,03,0.40
2006,11,26,10,04,0.40
2006,11,26,10,05,0.40
2006,11,26,10,06,0.40
2006,11,26,10,07,0.40
2006,11,26,10,08,0.40
2006,11,26,10,09,0.40
2006,11,26,10,10,0.40
2006,11,26,10,11,0.40
2006,11,26,10,12,0.40
2006,11,26,10,13,0.40
2006,11,26,10,14,0.40
2006,11,26,10,15,0.40
2006,11,26,10,16,0.40
2006,11,26,10,17,0.40
2006,11,26,10,18,0.40
2006,11,26,10,19,0.40
2006,11,26,10,20,0.40
2006,11,26,10,21,0.40
2006,11,26,10,22,0.40
2006,11,26,10,23,0.40
2006,11,26,10,24,0.40
2006,11,26,10,25,0.40
2006,11,26,10,26,0.40
2006,11,26,10,27,0.40
2006,11,26,10,28,0.40
2006,11,26,10,29,0.40
2006,11,26,10,30,0.40
2006,11,26,10,31,0.40
2006,11,26,10,32,0.40
2006,11,26,10,33,0.30
2006,11,26,10,34,0.30
2006,11,26,10,35,0.30
2006,11,26,10,36,0.30
2006,11,26,10,37,0.30
2006,11,26,10,38,0.30
2006,11,26,10,39,0.30
2006,11,26,10,40,0.30
2006,11,26,10,41,0.30
2006,11,26,10,42,0.30
2006,11,26,10,43,0.30
2006,11,26,10,44,0.30
2006,11,26,10,45,0.30
2006,11,26,10,46,0.30
2006,11,26,10,47,0.30
2006,11,26,10,48,0.30
2006,11,26,10,49,0.30
2006,11,26,10,50,0.30
2006,11,26,10,51,0.30
2006,11,26,10,52,0.30
2006,11,26,10,53,0.30
2006,11,26,10,54,0.30
2006,11,26,10,55,0.30
2006,11,26,10,56,0.30
2006,11,26,10,57,0.30
2006,11,26,10,58,0.30
2006,11,26,10,59,0.30
2006,11,26,11,00,0.30
2006,11,26,11,01,0.30
2006,11,26,11,02,0.30
2006,11,26,11,03,0.30
2006,11,26,11,04,0.30
2006,11,26,11,05,0.30
2006,11,26,11,06,0.30
2006,11,26,11,07,0.30
2006,11,26,11,08,0.30
2006,11,26,11,09,0.30
2006,11,26,11,10,0.30
2006,11,26,15,19,0.60
2006,11,26,15,23,0.60
2006,11,26,16,34,0.40
2006,11,26,17,52,0.40
2006,11,26,17,53,0.40
2006,11,26,17,54,0.40
2006,11,26,17,55,0.40
2006,11,26,17,56,0.40
2006,11,26,17,57,0.40
2006,11,26,17,58,0.40
2006,11,26,17,59,0.40
2006,11,26,18,00,0.40
2006,11,26,18,01,0.40
2006,11,26,18,02,0.30
2006,11,26,18,03,0.30
2006,11,26,18,04,0.30
2006,11,26,18,05,0.30
2006,11,26,18,06,0.30
2006,11,26,18,07,0.30
2006,11,26,18,08,0.30
2006,11,26,18,09,0.30
2006,11,26,18,10,0.30
2006,11,26,18,11,0.30
2006,11,26,18,12,0.30
2006,11,26,18,13,0.30
2006,11,26,18,14,0.30
2006,11,26,18,15,0.30
2006,11,26,18,16,0.30
2006,11,26,18,17,0.30
2006,11,26,18,18,0.30
2006,11,26,18,19,0.30
2006,11,26,18,20,0.30
2006,11,26,18,21,0.30
2006,11,26,18,22,0.30
2006,11,26,18,23,0.30
2006,11,26,18,24,0.30
2006,11,26,18,25,0.30
2006,11,26,18,26,0.30
2006,11,26,18,27,0.30
2006,11,26,18,28,0.40
2006,11,26,18,29,0.40
2006,11,26,18,30,0.40
2006,11,26,18,31,0.40
2006,11,26,18,32,0.40
2006,11,26,18,33,0.40
2006,11,26,18,34,0.40
2006,11,26,18,35,0.40
2006,11,26,18,36,0.40
2006,11,26,18,37,0.40
2006,11,26,18,38,0.40
2006,11,26,18,39,0.40
2006,11,26,18,40,0.40
2006,11,26,18,41,0.40
2006,11,26,18,42,0.40
2006,11,26,18,43,0.40
2006,11,26,18,44,0.40
2006,11,26,18,45,0.40
2006,11,26,18,46,0.40
2006,11,26,18,47,0.40
2006,11,26,18,48,0.40
2006,11,26,18,49,0.40
2006,11,26,18,50,0.40
2006,11,26,18,51,0.40
2006,11,26,18,52,0.40
2006,11,26,18,53,0.40
2006,11,26,18,54,0.40
2006,11,26,18,55,0.40
2006,11,26,18,56,0.40
2006,11,26,18,57,0.40
2006,11,26,18,58,0.40
2006,11,26,18,59,0.40
2006,11,26,19,00,0.40
2006,11,26,19,01,0.40
2006,11,26,19,02,0.40
2006,11,26,19,03,0.40
2006,11,26,19,04,0.40
2006,11,26,19,05,0.40
2006,11,26,19,06,0.40
2006,11,26,19,07,0.40
2006,11,26,19,08,0.40
2006,11,26,19,09,0.40
2006,11,26,19,10,0.40
2006,11,26,19,11,0.40
2006,11,26,19,12,0.40
2006,11,26,19,13,0.40
2006,11,26,19,14,0.40
2006,11,26,19,15,0.40
2006,11,26,19,16,0.40
2006,11,26,19,17,0.40
2006,11,26,19,18,0.40
2006,11,26,19,19,0.40
2006,11,26,19,20,0.40
2006,11,26,19,21,0.40
2006,11,26,19,22,0.40
2006,11,26,19,23,0.40
2006,11,26,19,24,0.40
2006,11,26,19,25,0.40
2006,11,26,19,26,0.40
2006,11,26,19,27,0.40
2006,11,26,19,28,0.40
2006,11,26,19,29,0.40
2006,11,26,19,30,0.40
2006,11,26,19,31,0.40
2006,11,26,19,32,0.30
2006,11,26,19,33,0.30
2006,11,26,19,34,0.30
2006,11,26,19,35,0.40
2006,11,26,19,36,0.40
2006,11,26,19,37,0.40
2006,11,26,19,38,0.40
2006,11,26,19,39,0.40
2006,11,26,19,40,0.40
2006,11,26,19,41,0.40
2006,11,26,19,42,0.40
2006,11,26,19,43,0.40
2006,11,26,19,44,0.40
2006,11,26,19,45,0.40
2006,11,26,19,46,0.40
2006,11,26,19,47,0.40
2006,11,26,19,48,0.40
2006,11,26,19,49,0.40
2006,11,26,19,50,0.40
2006,11,26,19,51,0.40
2006,11,26,19,52,0.40
2006,11,26,19,53,0.40
2006,11,26,19,54,0.40
2006,11,26,19,55,0.40
2006,11,26,19,56,0.40
2006,11,26,19,57,0.30
2006,11,26,19,58,0.30
2006,11,26,19,59,0.30
2006,11,26,20,00,0.30
2006,11,26,20,01,0.30
2006,11,26,20,02,0.30
2006,11,26,20,03,0.30
2006,11,26,20,04,0.30
2006,11,26,20,05,0.30
2006,11,26,20,06,0.30
2006,11,26,20,07,0.30
2006,11,26,20,08,0.30
2006,11,26,20,09,0.30
2006,11,26,20,10,0.30
2006,11,26,20,11,0.30
2006,11,26,20,12,0.20
2006,11,26,20,13,0.20
2006,11,26,20,14,0.20
2006,11,26,20,15,0.20
2006,11,26,20,16,0.20
2006,11,26,20,17,0.20
2006,11,26,20,18,0.20
2006,11,26,20,19,0.10
2006,11,26,20,20,0.10
2006,11,26,20,21,0.10
2006,11,26,20,22,0.10
2006,11,26,20,23,0.10
2006,11,26,20,24,0.10
2006,11,26,20,25,0.10
2006,11,26,20,26,0.10
2006,11,26,20,27,0.10
2006,11,26,20,28,0.00
2006,11,26,20,29,-0.10
2006,11,26,20,30,-0.10
2006,11,26,20,31,-0.10
2006,11,26,20,32,-0.10
2006,11,26,20,33,-0.10
2006,11,26,20,34,-0.10
2006,11,26,20,35,-0.10
2006,11,26,20,36,-0.10
2006,11,26,20,37,-0.10
2006,11,26,20,38,-0.10
2006,11,26,20,39,-0.10
2006,11,26,20,40,-0.10
2006,11,26,20,41,-0.10
2006,11,26,20,42,-0.20
2006,11,26,20,43,-0.20
2006,11,26,20,44,-0.20
2006,11,26,20,45,-0.20
2006,11,26,20,46,-0.20
2006,11,26,20,47,-0.20
2006,11,26,20,48,-0.20
2006,11,26,20,49,-0.20
2006,11,26,20,50,-0.20
2006,11,26,20,51,-0.20
2006,11,26,20,52,-0.20
2006,11,26,20,53,-0.20
2006,11,26,20,54,-0.30
2006,11,26,20,55,-0.30
2006,11,26,20,56,-0.30
2006,11,26,20,57,-0.30
2006,11,26,20,58,-0.30
2006,11,26,20,59,-0.30
2006,11,26,21,00,-0.30
2006,11,26,21,01,-0.30
2006,11,26,21,02,-0.30
2006,11,26,21,03,-0.30
2006,11,26,21,04,-0.30
2006,11,26,21,05,-0.30
2006,11,26,21,06,-0.30
2006,11,26,21,07,-0.30
2006,11,26,21,08,-0.30
2006,11,26,21,09,-0.30
2006,11,26,21,10,-0.30
2006,11,26,21,11,-0.30
2006,11,26,21,12,-0.30
2006,11,26,21,13,-0.30
2006,11,26,21,14,-0.30
2006,11,26,21,15,-0.30
2006,11,26,21,16,-0.40
2006,11,26,21,17,-0.40
2006,11,26,21,18,-0.40
2006,11,26,21,19,-0.40
2006,11,26,21,20,-0.40
2006,11,26,21,21,-0.40
2006,11,26,21,22,-0.40
2006,11,26,21,23,-0.40
2006,11,26,21,24,-0.40
2006,11,26,21,25,-0.40
2006,11,26,21,26,-0.40
2006,11,26,21,27,-0.40
2006,11,26,21,28,-0.40
2006,11,26,21,29,-0.40
2006,11,26,21,30,-0.50
2006,11,26,21,31,-0.60
2006,11,26,21,32,-0.60
2006,11,26,21,33,-0.60
2006,11,26,21,34,-0.60
2006,11,26,21,35,-0.60
2006,11,26,21,36,-0.60
2006,11,26,21,37,-0.60
2006,11,26,21,38,-0.70
2006,11,26,21,39,-0.70
2006,11,26,21,40,-0.70
2006,11,26,21,41,-0.80
2006,11,26,21,42,-0.80
2006,11,26,21,43,-0.80
2006,11,26,21,44,-0.80
2006,11,26,21,45,-0.80
2006,11,26,21,46,-0.80
2006,11,26,21,47,-0.80
2006,11,26,21,48,-0.80
2006,11,26,21,49,-0.80
2006,11,26,21,50,-0.80
2006,11,26,21,51,-0.80
2006,11,26,21,52,-0.80
2006,11,26,21,53,-0.80
2006,11,26,21,54,-0.90
2006,11,26,21,55,-0.90
2006,11,26,21,56,-0.90
2006,11,26,21,57,-0.90
2006,11,26,21,58,-0.90
2006,11,26,21,59,-0.90
2006,11,26,22,00,-0.90
2006,11,26,22,01,-0.90
2006,11,26,22,02,-1.00
2006,11,26,22,03,-1.10
2006,11,26,22,04,-1.10
2006,11,26,22,05,-1.10
2006,11,26,22,06,-1.10
2006,11,26,22,07,-1.10
2006,11,26,22,08,-1.10
2006,11,26,22,09,-1.10
2006,11,26,22,10,-1.20
2006,11,26,22,11,-1.20
2006,11,26,22,12,-1.20
2006,11,26,22,13,-1.20
2006,11,26,22,14,-1.20
2006,11,26,22,15,-1.20
2006,11,26,22,16,-1.20
2006,11,26,22,17,-1.20
2006,11,26,22,18,-1.20
2006,11,26,22,19,-1.20
2006,11,26,22,20,-1.20
2006,11,26,22,21,-1.30
2006,11,26,22,22,-1.30
2006,11,26,22,23,-1.30
2006,11,26,22,24,-1.30
2006,11,26,22,25,-1.30
2006,11,26,22,26,-1.30
2006,11,26,22,27,-1.30
2006,11,26,22,28,-1.30
2006,11,26,22,29,-1.30
2006,11,26,22,30,-1.30
2006,11,26,22,31,-1.40
2006,11,26,22,32,-1.40
2006,11,26,22,33,-1.40
2006,11,26,22,34,-1.40
2006,11,26,22,35,-1.40
2006,11,26,22,36,-1.40
2006,11,26,22,37,-1.40
2006,11,26,22,38,-1.40
2006,11,26,22,39,-1.40
2006,11,26,22,40,-1.40
2006,11,26,22,41,-1.50
2006,11,26,22,42,-1.50
2006,11,26,22,43,-1.50
2006,11,26,22,44,-1.50
2006,11,26,22,45,-1.50
2006,11,26,22,46,-1.50
2006,11,26,22,47,-1.50
2006,11,26,22,48,-1.50
2006,11,26,22,49,-1.50
2006,11,26,22,50,-1.50
2006,11,26,22,51,-1.60
2006,11,26,22,52,-1.60
2006,11,26,22,53,-1.60
2006,11,26,22,54,-1.60
2006,11,26,22,55,-1.60
2006,11,26,22,56,-1.60
2006,11,26,22,57,-1.50
2006,11,26,22,58,-1.50
2006,11,26,22,59,-1.50
2006,11,26,23,00,-1.50
2006,11,26,23,01,-1.50
2006,11,26,23,02,-1.50
2006,11,26,23,03,-1.50
2006,11,26,23,04,-1.50
2006,11,26,23,05,-1.50
2006,11,26,23,06,-1.50
2006,11,26,23,07,-1.50
2006,11,26,23,08,-1.50
2006,11,26,23,09,-1.50
2006,11,26,23,10,-1.50
2006,11,26,23,11,-1.50
2006,11,26,23,12,-1.50
2006,11,26,23,13,-1.50
2006,11,26,23,14,-1.50
2006,11,26,23,15,-1.50
2006,11,26,23,16,-1.50
2006,11,26,23,17,-1.60
2006,11,26,23,18,-1.60
2006,11,26,23,19,-1.60
2006,11,26,23,20,-1.60
2006,11,26,23,21,-1.70
2006,11,26,23,22,-1.70
2006,11,26,23,23,-1.70
2006,11,26,23,24,-1.70
2006,11,26,23,25,-1.70
2006,11,26,23,26,-1.70
2006,11,26,23,27,-1.70
2006,11,26,23,28,-1.70
2006,11,26,23,29,-1.70
2006,11,26,23,30,-1.70
2006,11,26,23,31,-1.70
2006,11,26,23,32,-1.70
2006,11,26,23,33,-1.80
2006,11,26,23,34,-1.80
2006,11,26,23,35,-1.80
2006,11,26,23,36,-1.80
2006,11,26,23,37,-1.80
2006,11,26,23,38,-1.80
2006,11,26,23,39,-1.80
2006,11,26,23,40,-1.80
2006,11,26,23,41,-1.80
2006,11,26,23,42,-1.80
2006,11,26,23,43,-1.80
2006,11,26,23,44,-1.80
2006,11,26,23,45,-1.80
2006,11,26,23,46,-1.80
2006,11,26,23,47,-1.80
2006,11,26,23,48,-1.80
2006,11,26,23,49,-1.80
2006,11,26,23,50,-1.80
2006,11,26,23,51,-1.80
2006,11,26,23,52,-1.80
2006,11,26,23,53,-1.80
2006,11,26,23,54,-1.80
2006,11,26,23,55,-1.80
2006,11,26,23,56,-1.80
2006,11,26,23,57,-1.80
2006,11,26,23,58,-1.80
2006,11,26,23,59,-1.80
